Radioactive Concentration measured by Seawater Radiation Monitor near Fukushima Daiichi Nuclear Power Station
Date,Time,Cs137(Bq/L),Cs134(Bq/L),Total β(Bq/L)
2021/01/30,00:00,-,-,12
2021/01/30,00:10,-,-,12
2021/01/30,00:20,-,-,13
2021/01/30,00:30,-,-,14
2021/01/30,00:40,-,-,12
2021/01/30,00:50,-,-,13
2021/01/30,01:00,-,-,16
2021/01/30,01:10,-,-,18
2021/01/30,01:20,-,-,15
2021/01/30,01:30,-,-,16
2021/01/30,01:40,-,-,19
2021/01/30,01:50,-,-,18
2021/01/30,02:00,-,-,17
2021/01/30,02:10,-,-,18
2021/01/30,02:20,-,-,19
2021/01/30,02:30,-,-,18
2021/01/30,02:40,-,-,17
2021/01/30,02:50,-,-,16
2021/01/30,03:00,-,-,18
2021/01/30,03:10,-,-,17
2021/01/30,03:20,-,-,19
2021/01/30,03:30,-,-,18
2021/01/30,03:40,-,-,20
2021/01/30,03:50,-,-,21
2021/01/30,04:00,-,-,23
2021/01/30,04:10,-,-,23
2021/01/30,04:20,-,-,22
2021/01/30,04:30,-,-,22
2021/01/30,04:40,-,-,22
2021/01/30,04:50,-,-,23
2021/01/30,05:00,-,-,22
2021/01/30,05:10,-,-,23
2021/01/30,05:20,-,-,21
2021/01/30,05:30,-,-,23
2021/01/30,05:40,-,-,21
2021/01/30,05:50,-,-,20
2021/01/30,06:00,-,-,19
2021/01/30,06:10,-,-,18
2021/01/30,06:20,-,-,18
2021/01/30,06:30,-,-,17
2021/01/30,06:40,-,-,17
2021/01/30,06:50,-,-,18
2021/01/30,07:00,-,-,18
2021/01/30,07:10,-,-,20
2021/01/30,07:20,-,-,23
2021/01/30,07:30,-,-,23
2021/01/30,07:40,-,-,21
2021/01/30,07:50,-,-,20
2021/01/30,08:00,-,-,18
2021/01/30,08:10,-,-,15
2021/01/30,08:20,-,-,15
2021/01/30,08:30,-,-,13
2021/01/30,08:40,-,-,17
2021/01/30,08:50,-,-,19
2021/01/30,09:00,-,-,17
2021/01/30,09:10,-,-,19
2021/01/30,09:20,-,-,21
2021/01/30,09:30,-,-,23
2021/01/30,09:40,-,-,22
2021/01/30,09:50,-,-,16
2021/01/30,10:00,-,-,18
2021/01/30,10:10,-,-,16
2021/01/30,10:20,-,-,13
2021/01/30,10:30,-,-,13
2021/01/30,10:40,-,-,12
2021/01/30,10:50,-,-,15
2021/01/30,11:00,-,-,14
2021/01/30,11:10,-,-,12
2021/01/30,11:20,-,-,12
2021/01/30,11:30,-,-,12
2021/01/30,11:40,-,-,14
2021/01/30,11:50,-,-,15
2021/01/30,12:00,-,-,16
2021/01/30,12:10,-,-,18
2021/01/30,12:20,-,-,19
2021/01/30,12:30,-,-,17
2021/01/30,12:40,-,-,17
2021/01/30,12:50,-,-,16
2021/01/30,13:00,-,-,19
2021/01/30,13:10,-,-,17
2021/01/30,13:20,-,-,18
2021/01/30,13:30,-,-,18
2021/01/30,13:40,-,-,16
2021/01/30,13:50,-,-,15
2021/01/30,14:00,-,-,14
2021/01/30,14:10,-,-,14
2021/01/30,14:20,-,-,14
2021/01/30,14:30,-,-,13
2021/01/30,14:40,-,-,11
2021/01/30,14:50,-,-,16
2021/01/30,15:00,-,-,14
2021/01/30,15:10,-,-,13
2021/01/30,15:20,-,-,13
2021/01/30,15:30,-,-,13
2021/01/30,15:40,-,-,14
2021/01/30,15:50,-,-,11
2021/01/30,16:00,-,-,12
2021/01/30,16:10,-,-,11
2021/01/30,16:20,-,-,9.6
2021/01/30,16:30,-,-,11
2021/01/30,16:40,-,-,12
2021/01/30,16:50,-,-,12
2021/01/30,17:00,-,-,12
2021/01/30,17:10,-,-,11
2021/01/30,17:20,-,-,13
2021/01/30,17:30,-,-,12
2021/01/30,17:40,-,-,9.9
2021/01/30,17:50,-,-,12
2021/01/30,18:00,-,-,11
2021/01/30,18:10,-,-,14
2021/01/30,18:20,-,-,13
2021/01/30,18:30,-,-,15
2021/01/30,18:40,-,-,19
2021/01/30,18:50,-,-,19
2021/01/30,19:00,-,-,18
2021/01/30,19:10,-,-,19
2021/01/30,19:20,-,-,20
2021/01/30,19:30,-,-,19
2021/01/30,19:40,-,-,14
2021/01/30,19:50,-,-,14
2021/01/30,20:00,-,-,16
2021/01/30,20:10,-,-,15
2021/01/30,20:20,-,-,13
2021/01/30,20:30,-,-,13
2021/01/30,20:40,-,-,16
2021/01/30,20:50,-,-,18
2021/01/30,21:00,-,-,16
2021/01/30,21:10,-,-,18
2021/01/30,21:20,-,-,18
2021/01/30,21:30,-,-,16
2021/01/30,21:40,-,-,16
2021/01/30,21:50,-,-,13
2021/01/30,22:00,-,-,14
2021/01/30,22:10,-,-,11
2021/01/30,22:20,-,-,9.6
2021/01/30,22:30,-,-,10
2021/01/30,22:40,-,-,9.0
2021/01/30,22:50,-,-,12
2021/01/30,23:00,-,-,9.3
2021/01/30,23:10,-,-,10
2021/01/30,23:20,-,-,13
2021/01/30,23:30,-,-,12
2021/01/30,23:40,-,-,15
2021/01/30,23:50,-,-,12
